Time,TemperatureF,DewpointF,PressureIn,WindDirection,WindDirectionDegrees,WindSpeedMPH,WindSpeedGustMPH,Humidity,HourlyPrecipIn,Conditions,Clouds,dailyrainin,SoftwareType,DateUTC
2013-04-25 00:00:00,77.0,-99.9,29.98,South,180,4.0,7.0,-999,-99.99,,,-99.99,,2013-04-25 04:00:00,
2013-04-25 00:03:00,77.0,-99.9,29.98,South,180,4.0,7.0,-999,-99.99,,,-99.99,,2013-04-25 04:03:00,
2013-04-25 00:13:00,77.0,-99.9,29.98,South,180,4.0,7.0,-999,-99.99,,,-99.99,,2013-04-25 04:13:00,
2013-04-25 00:23:00,77.0,-99.9,29.98,South,180,4.0,7.0,-999,-99.99,,,-99.99,,2013-04-25 04:23:00,
2013-04-25 00:33:00,77.0,-99.9,29.98,South,180,4.0,7.0,-999,-99.99,,,-99.99,,2013-04-25 04:33:00,
2013-04-25 00:43:00,77.0,-99.9,29.98,South,180,4.0,7.0,-999,-99.99,,,-99.99,,2013-04-25 04:43:00,
2013-04-25 00:52:00,77.0,-99.9,29.98,South,180,4.0,7.0,-999,-99.99,,,-99.99,,2013-04-25 04:52:00,
2013-04-25 01:32:00,77.0,-99.9,29.96,South,180,4.0,7.0,-999,-99.99,,,-99.99,,2013-04-25 05:32:00,
2013-04-25 01:42:00,77.0,-99.9,29.96,South,180,4.0,7.0,-999,-99.99,,,-99.99,,2013-04-25 05:42:00,
2013-04-25 01:52:00,77.0,-99.9,29.96,South,180,4.0,7.0,-999,-99.99,,,-99.99,,2013-04-25 05:52:00,
2013-04-25 02:02:00,76.0,-99.9,29.96,South,190,4.0,7.0,-999,-99.99,,,-99.99,,2013-04-25 06:02:00,
2013-04-25 02:12:00,76.0,-99.9,29.96,South,190,4.0,7.0,-999,-99.99,,,-99.99,,2013-04-25 06:12:00,
2013-04-25 02:22:00,76.0,-99.9,29.96,South,190,4.0,7.0,-999,-99.99,,,-99.99,,2013-04-25 06:22:00,
2013-04-25 02:32:00,76.0,-99.9,29.95,SSW,210,4.0,7.0,-999,-99.99,,,-99.99,,2013-04-25 06:32:00,
2013-04-25 02:42:00,76.0,-99.9,29.95,SSW,210,4.0,7.0,-999,-99.99,,,-99.99,,2013-04-25 06:42:00,
2013-04-25 02:52:00,76.0,-99.9,29.95,SSW,210,4.0,7.0,-999,-99.99,,,-99.99,,2013-04-25 06:52:00,
2013-04-25 03:02:00,76.0,-99.9,29.94,SSW,210,4.0,7.0,-999,-99.99,,,-99.99,,2013-04-25 07:02:00,
2013-04-25 03:12:00,76.0,-99.9,29.94,SSW,210,4.0,7.0,-999,-99.99,,,-99.99,,2013-04-25 07:12:00,
2013-04-25 03:22:00,76.0,-99.9,29.94,SSW,210,4.0,7.0,-999,-99.99,,,-99.99,,2013-04-25 07:22:00,
2013-04-25 03:30:00,76.0,-99.9,29.94,SSW,210,2.0,4.0,-999,-99.99,,,-99.99,,2013-04-25 07:30:00,
2013-04-25 03:32:00,76.0,-99.9,29.94,South,180,2.0,4.0,-999,-99.99,,,-99.99,,2013-04-25 07:32:00,
2013-04-25 03:42:00,76.0,-99.9,29.94,South,180,2.0,4.0,-999,-99.99,,,-99.99,,2013-04-25 07:42:00,
2013-04-25 03:53:00,76.0,-99.9,29.94,South,180,2.0,4.0,-999,-99.99,,,-99.99,,2013-04-25 07:53:00,
2013-04-25 04:02:00,76.0,-99.9,29.94,SSW,210,2.0,4.0,-999,-99.99,,,-99.99,,2013-04-25 08:02:00,
2013-04-25 04:11:00,76.0,-99.9,29.94,SSW,210,2.0,4.0,-999,-99.99,,,-99.99,,2013-04-25 08:11:00,
2013-04-25 04:22:00,76.0,-99.9,29.94,SSW,210,2.0,4.0,-999,-99.99,,,-99.99,,2013-04-25 08:22:00,
2013-04-25 04:30:00,75.0,-99.9,29.93,SSW,210,4.0,4.0,-999,-99.99,,,-99.99,,2013-04-25 08:30:00,
2013-04-25 04:52:00,75.0,-99.9,29.94,SSW,200,4.0,7.0,-999,-99.99,,,-99.99,,2013-04-25 08:52:00,
2013-04-25 05:01:00,75.0,-99.9,29.93,SSW,210,4.0,4.0,-999,-99.99,,,-99.99,,2013-04-25 09:01:00,
2013-04-25 05:11:00,75.0,-99.9,29.93,SSW,210,4.0,4.0,-999,-99.99,,,-99.99,,2013-04-25 09:11:00,
2013-04-25 05:22:00,75.0,-99.9,29.93,SSW,210,4.0,4.0,-999,-99.99,,,-99.99,,2013-04-25 09:22:00,
2013-04-25 05:42:00,75.0,-99.9,29.94,South,180,4.0,4.0,-999,-99.99,,,-99.99,,2013-04-25 09:42:00,
2013-04-25 05:53:00,75.0,-99.9,29.94,South,180,4.0,4.0,-999,-99.99,,,-99.99,,2013-04-25 09:53:00,
2013-04-25 06:03:00,76.0,-99.9,29.95,SE,140,4.0,4.0,-999,-99.99,,,-99.99,,2013-04-25 10:03:00,
2013-04-25 06:12:00,76.0,-99.9,29.95,SE,140,4.0,4.0,-999,-99.99,,,-99.99,,2013-04-25 10:12:00,
2013-04-25 06:22:00,76.0,-99.9,29.95,SE,140,4.0,4.0,-999,-99.99,,,-99.99,,2013-04-25 10:22:00,
2013-04-25 06:33:00,77.0,-99.9,29.96,ESE,110,4.0,7.0,-999,-99.99,,,-99.99,,2013-04-25 10:33:00,
2013-04-25 06:42:00,77.0,-99.9,29.96,ESE,110,4.0,7.0,-999,-99.99,,,-99.99,,2013-04-25 10:42:00,
2013-04-25 06:53:00,77.0,-99.9,29.96,ESE,110,4.0,7.0,-999,-99.99,,,-99.99,,2013-04-25 10:53:00,
2013-04-25 07:02:00,76.0,-99.9,29.97,West,260,4.0,7.0,-999,-99.99,,,-99.99,,2013-04-25 11:02:00,
2013-04-25 07:12:00,76.0,-99.9,29.97,West,260,4.0,7.0,-999,-99.99,,,-99.99,,2013-04-25 11:12:00,
2013-04-25 07:22:00,76.0,-99.9,29.97,West,260,4.0,7.0,-999,-99.99,,,-99.99,,2013-04-25 11:22:00,
2013-04-25 07:33:00,76.0,-99.9,29.98,SW,220,2.0,4.0,-999,-99.99,,,-99.99,,2013-04-25 11:33:00,
2013-04-25 07:42:00,76.0,-99.9,29.98,SW,220,2.0,4.0,-999,-99.99,,,-99.99,,2013-04-25 11:42:00,
2013-04-25 07:52:00,76.0,-99.9,29.98,SW,220,2.0,4.0,-999,-99.99,,,-99.99,,2013-04-25 11:52:00,
2013-04-25 08:01:00,77.0,-99.9,29.98,SW,230,2.0,7.0,-999,-99.99,,,-99.99,,2013-04-25 12:01:00,
2013-04-25 08:12:00,77.0,-99.9,29.98,SW,230,2.0,7.0,-999,-99.99,,,-99.99,,2013-04-25 12:12:00,
2013-04-25 08:22:00,77.0,-99.9,29.98,SW,230,2.0,7.0,-999,-99.99,,,-99.99,,2013-04-25 12:22:00,
2013-04-25 08:32:00,78.0,-99.9,29.99,West,280,4.0,7.0,-999,-99.99,,,-99.99,,2013-04-25 12:32:00,
2013-04-25 08:42:00,78.0,-99.9,29.99,West,280,4.0,7.0,-999,-99.99,,,-99.99,,2013-04-25 12:42:00,
2013-04-25 08:52:00,78.0,-99.9,29.99,West,280,4.0,7.0,-999,-99.99,,,-99.99,,2013-04-25 12:52:00,
2013-04-25 09:02:00,78.0,-99.9,29.99,West,260,2.0,4.0,-999,-99.99,,,-99.99,,2013-04-25 13:02:00,
2013-04-25 09:11:00,78.0,-99.9,29.99,West,260,2.0,4.0,-999,-99.99,,,-99.99,,2013-04-25 13:11:00,
2013-04-25 09:21:00,78.0,-99.9,29.99,West,260,2.0,4.0,-999,-99.99,,,-99.99,,2013-04-25 13:21:00,
2013-04-25 09:32:00,80.0,-99.9,30.00,North,10,2.0,4.0,-999,-99.99,,,-99.99,,2013-04-25 13:32:00,
2013-04-25 09:42:00,80.0,-99.9,30.00,North,10,2.0,4.0,-999,-99.99,,,-99.99,,2013-04-25 13:42:00,
2013-04-25 09:53:00,80.0,-99.9,30.00,North,10,2.0,4.0,-999,-99.99,,,-99.99,,2013-04-25 13:53:00,
2013-04-25 10:00:00,79.0,-99.9,30.01,NNE,30,4.0,7.0,-999,-99.99,,,-99.99,,2013-04-25 14:00:00,
2013-04-25 10:02:00,79.0,-99.9,30.00,ENE,60,2.0,4.0,-999,-99.99,,,-99.99,,2013-04-25 14:02:00,
2013-04-25 10:11:00,79.0,-99.9,30.00,ENE,60,2.0,4.0,-999,-99.99,,,-99.99,,2013-04-25 14:11:00,
2013-04-25 10:22:00,79.0,-99.9,30.00,ENE,60,2.0,4.0,-999,-99.99,,,-99.99,,2013-04-25 14:22:00,
2013-04-25 10:32:00,79.0,-99.9,30.01,NNE,30,4.0,7.0,-999,-99.99,,,-99.99,,2013-04-25 14:32:00,
2013-04-25 10:42:00,79.0,-99.9,30.01,NNE,30,4.0,7.0,-999,-99.99,,,-99.99,,2013-04-25 14:42:00,
2013-04-25 10:52:00,79.0,-99.9,30.01,NNE,30,4.0,7.0,-999,-99.99,,,-99.99,,2013-04-25 14:52:00,
2013-04-25 11:53:00,80.0,-99.9,30.01,ENE,60,9.0,11.0,-999,-99.99,,,-99.99,,2013-04-25 15:53:00,
2013-04-25 12:00:00,80.0,-99.9,29.99,NE,50,9.0,13.0,-999,-99.99,,,-99.99,,2013-04-25 16:00:00,
2013-04-25 12:03:00,80.0,-99.9,30.00,NE,50,9.0,11.0,-999,-99.99,,,-99.99,,2013-04-25 16:03:00,
2013-04-25 12:13:00,80.0,-99.9,30.00,NE,50,9.0,11.0,-999,-99.99,,,-99.99,,2013-04-25 16:13:00,
2013-04-25 12:24:00,80.0,-99.9,30.00,NE,50,9.0,11.0,-999,-99.99,,,-99.99,,2013-04-25 16:24:00,
2013-04-25 12:33:00,80.0,-99.9,29.99,NE,50,9.0,13.0,-999,-99.99,,,-99.99,,2013-04-25 16:33:00,
2013-04-25 12:43:00,80.0,-99.9,29.99,NE,50,9.0,13.0,-999,-99.99,,,-99.99,,2013-04-25 16:43:00,
2013-04-25 12:53:00,80.0,-99.9,29.99,NE,50,9.0,13.0,-999,-99.99,,,-99.99,,2013-04-25 16:53:00,
2013-04-25 13:42:00,80.0,-99.9,29.98,NE,50,11.0,13.0,-999,-99.99,,,-99.99,,2013-04-25 17:42:00,
2013-04-25 13:53:00,80.0,-99.9,29.98,NE,50,11.0,13.0,-999,-99.99,,,-99.99,,2013-04-25 17:53:00,
2013-04-25 14:02:00,80.0,-99.9,29.97,NE,50,11.0,13.0,-999,-99.99,,,-99.99,,2013-04-25 18:02:00,
2013-04-25 14:11:00,80.0,-99.9,29.97,NE,50,11.0,13.0,-999,-99.99,,,-99.99,,2013-04-25 18:11:00,
2013-04-25 14:22:00,80.0,-99.9,29.97,NE,50,11.0,13.0,-999,-99.99,,,-99.99,,2013-04-25 18:22:00,
2013-04-25 14:32:00,80.0,-99.9,29.96,NE,50,11.0,16.0,-999,-99.99,,,-99.99,,2013-04-25 18:32:00,
2013-04-25 14:43:00,80.0,-99.9,29.96,NE,50,11.0,16.0,-999,-99.99,,,-99.99,,2013-04-25 18:43:00,
2013-04-25 14:53:00,80.0,-99.9,29.96,NE,50,11.0,16.0,-999,-99.99,,,-99.99,,2013-04-25 18:53:00,
2013-04-25 15:02:00,80.0,-99.9,29.95,NE,50,13.0,16.0,-999,-99.99,,,-99.99,,2013-04-25 19:02:00,
2013-04-25 15:12:00,80.0,-99.9,29.95,NE,50,13.0,16.0,-999,-99.99,,,-99.99,,2013-04-25 19:12:00,
2013-04-25 15:21:00,80.0,-99.9,29.95,NE,50,13.0,16.0,-999,-99.99,,,-99.99,,2013-04-25 19:21:00,
2013-04-25 15:32:00,80.0,-99.9,29.94,NE,50,13.0,16.0,-999,-99.99,,,-99.99,,2013-04-25 19:32:00,
2013-04-25 15:42:00,80.0,-99.9,29.94,NE,50,13.0,16.0,-999,-99.99,,,-99.99,,2013-04-25 19:42:00,
2013-04-25 15:52:00,80.0,-99.9,29.94,NE,50,13.0,16.0,-999,-99.99,,,-99.99,,2013-04-25 19:52:00,
2013-04-25 16:02:00,80.0,-99.9,29.94,NE,50,13.0,16.0,-999,-99.99,,,-99.99,,2013-04-25 20:02:00,
2013-04-25 16:12:00,80.0,-99.9,29.94,NE,50,13.0,16.0,-999,-99.99,,,-99.99,,2013-04-25 20:12:00,
2013-04-25 16:22:00,80.0,-99.9,29.94,NE,50,13.0,16.0,-999,-99.99,,,-99.99,,2013-04-25 20:22:00,
2013-04-25 16:32:00,80.0,-99.9,29.93,NE,50,11.0,16.0,-999,-99.99,,,-99.99,,2013-04-25 20:32:00,
2013-04-25 16:43:00,80.0,-99.9,29.93,NE,50,11.0,16.0,-999,-99.99,,,-99.99,,2013-04-25 20:43:00,
2013-04-25 16:52:00,80.0,-99.9,29.93,NE,50,11.0,16.0,-999,-99.99,,,-99.99,,2013-04-25 20:52:00,
2013-04-25 17:01:00,80.0,-99.9,29.94,NE,50,11.0,16.0,-999,-99.99,,,-99.99,,2013-04-25 21:01:00,
2013-04-25 17:11:00,80.0,-99.9,29.94,NE,50,11.0,16.0,-999,-99.99,,,-99.99,,2013-04-25 21:11:00,
2013-04-25 17:22:00,80.0,-99.9,29.94,NE,50,11.0,16.0,-999,-99.99,,,-99.99,,2013-04-25 21:22:00,
2013-04-25 17:33:00,80.0,-99.9,29.95,ENE,60,11.0,16.0,-999,-99.99,,,-99.99,,2013-04-25 21:33:00,
2013-04-25 17:42:00,80.0,-99.9,29.95,ENE,60,11.0,16.0,-999,-99.99,,,-99.99,,2013-04-25 21:42:00,
2013-04-25 17:53:00,80.0,-99.9,29.95,ENE,60,11.0,16.0,-999,-99.99,,,-99.99,,2013-04-25 21:53:00,
2013-04-25 18:03:00,80.0,-99.9,29.95,ENE,60,11.0,13.0,-999,-99.99,,,-99.99,,2013-04-25 22:03:00,
2013-04-25 18:12:00,80.0,-99.9,29.95,ENE,60,11.0,13.0,-999,-99.99,,,-99.99,,2013-04-25 22:12:00,
2013-04-25 18:22:00,80.0,-99.9,29.95,ENE,60,11.0,13.0,-999,-99.99,,,-99.99,,2013-04-25 22:22:00,
2013-04-25 18:33:00,80.0,-99.9,29.95,ENE,60,11.0,13.0,-999,-99.99,,,-99.99,,2013-04-25 22:33:00,
2013-04-25 18:42:00,80.0,-99.9,29.95,ENE,60,11.0,13.0,-999,-99.99,,,-99.99,,2013-04-25 22:42:00,
2013-04-25 18:53:00,80.0,-99.9,29.95,ENE,60,11.0,13.0,-999,-99.99,,,-99.99,,2013-04-25 22:53:00,
2013-04-25 19:02:00,80.0,-99.9,29.96,ENE,70,11.0,13.0,-999,-99.99,,,-99.99,,2013-04-25 23:02:00,
2013-04-25 19:12:00,80.0,-99.9,29.96,ENE,70,11.0,13.0,-999,-99.99,,,-99.99,,2013-04-25 23:12:00,
2013-04-25 19:22:00,80.0,-99.9,29.96,ENE,70,11.0,13.0,-999,-99.99,,,-99.99,,2013-04-25 23:22:00,
2013-04-25 19:32:00,80.0,-99.9,29.96,ENE,70,9.0,13.0,-999,-99.99,,,-99.99,,2013-04-25 23:32:00,
2013-04-25 19:42:00,80.0,-99.9,29.96,ENE,70,9.0,13.0,-999,-99.99,,,-99.99,,2013-04-25 23:42:00,
2013-04-25 19:52:00,80.0,-99.9,29.96,ENE,70,9.0,13.0,-999,-99.99,,,-99.99,,2013-04-25 23:52:00,
2013-04-25 20:01:00,80.0,-99.9,29.97,ENE,70,11.0,16.0,-999,-99.99,,,-99.99,,2013-04-26 00:01:00,
2013-04-25 20:11:00,80.0,-99.9,29.97,ENE,70,11.0,16.0,-999,-99.99,,,-99.99,,2013-04-26 00:11:00,
2013-04-25 20:22:00,80.0,-99.9,29.97,ENE,70,11.0,16.0,-999,-99.99,,,-99.99,,2013-04-26 00:22:00,
2013-04-25 20:32:00,80.0,-99.9,29.98,ENE,70,11.0,16.0,-999,-99.99,,,-99.99,,2013-04-26 00:32:00,
2013-04-25 20:42:00,80.0,-99.9,29.98,ENE,70,11.0,16.0,-999,-99.99,,,-99.99,,2013-04-26 00:42:00,
2013-04-25 20:52:00,80.0,-99.9,29.98,ENE,70,11.0,16.0,-999,-99.99,,,-99.99,,2013-04-26 00:52:00,
2013-04-25 21:01:00,79.0,-99.9,29.98,ENE,70,13.0,16.0,-999,-99.99,,,-99.99,,2013-04-26 01:01:00,
2013-04-25 21:11:00,79.0,-99.9,29.98,ENE,70,13.0,16.0,-999,-99.99,,,-99.99,,2013-04-26 01:11:00,
2013-04-25 21:22:00,79.0,-99.9,29.98,ENE,70,13.0,16.0,-999,-99.99,,,-99.99,,2013-04-26 01:22:00,
2013-04-25 21:32:00,79.0,-99.9,30.00,ENE,70,13.0,16.0,-999,-99.99,,,-99.99,,2013-04-26 01:32:00,
2013-04-25 21:42:00,79.0,-99.9,30.00,ENE,70,13.0,16.0,-999,-99.99,,,-99.99,,2013-04-26 01:42:00,
2013-04-25 21:52:00,79.0,-99.9,30.00,ENE,70,13.0,16.0,-999,-99.99,,,-99.99,,2013-04-26 01:52:00,
2013-04-25 22:02:00,79.0,-99.9,30.00,ENE,70,11.0,16.0,-999,-99.99,,,-99.99,,2013-04-26 02:02:00,
2013-04-25 22:12:00,79.0,-99.9,30.00,ENE,70,11.0,16.0,-999,-99.99,,,-99.99,,2013-04-26 02:12:00,
2013-04-25 22:22:00,79.0,-99.9,30.00,ENE,70,11.0,16.0,-999,-99.99,,,-99.99,,2013-04-26 02:22:00,
2013-04-25 22:32:00,79.0,-99.9,30.01,East,80,11.0,13.0,-999,-99.99,,,-99.99,,2013-04-26 02:32:00,
2013-04-25 22:42:00,79.0,-99.9,30.01,East,80,11.0,13.0,-999,-99.99,,,-99.99,,2013-04-26 02:42:00,
2013-04-25 22:52:00,79.0,-99.9,30.01,East,80,11.0,13.0,-999,-99.99,,,-99.99,,2013-04-26 02:52:00,
2013-04-25 23:01:00,79.0,-99.9,30.01,ENE,70,11.0,13.0,-999,-99.99,,,-99.99,,2013-04-26 03:01:00,
2013-04-25 23:11:00,79.0,-99.9,30.01,ENE,70,11.0,13.0,-999,-99.99,,,-99.99,,2013-04-26 03:11:00,
2013-04-25 23:22:00,79.0,-99.9,30.01,ENE,70,11.0,13.0,-999,-99.99,,,-99.99,,2013-04-26 03:22:00,
2013-04-25 23:33:00,79.0,-99.9,30.01,ENE,70,9.0,13.0,-999,-99.99,,,-99.99,,2013-04-26 03:33:00,
2013-04-25 23:43:00,79.0,-99.9,30.01,ENE,70,9.0,13.0,-999,-99.99,,,-99.99,,2013-04-26 03:43:00,
2013-04-25 23:53:00,79.0,-99.9,30.01,ENE,70,9.0,13.0,-999,-99.99,,,-99.99,,2013-04-26 03:53:00,